This is the latest recevied weather packets stored in our database for station/object KC9NPJ-13. If no packets are shown the sender has not sent any weather packets the latest 1 day(s).
| Time | Temp. | Humidity | Pressure | Rain* | Wind** | Luminosity | Snow |
|---|---|---|---|---|---|---|---|
| 1778051638 | 7.22° C | 95% | 1012 hPa | 0 mm | - | - | - |
| 1778051338 | 7.22° C | 95% | 1012.1 hPa | 0 mm | - | - | - |
| 1778051038 | 7.22° C | 95% | 1012.3 hPa | 0 mm | - | - | - |
| 1778050738 | 7.22° C | 95% | 1012.5 hPa | 0 mm | - | - | - |
| 1778050438 | 7.22° C | 95% | 1012.3 hPa | 0 mm | - | - | - |
| 1778050138 | 7.22° C | 95% | 1012.1 hPa | 0 mm | - | - | - |
| 1778049838 | 7.22° C | 95% | 1012.2 hPa | 0 mm | - | - | - |
| 1778049538 | 7.22° C | 95% | 1012.1 hPa | 0 mm | - | - | - |
| 1778049238 | 7.22° C | 95% | 1012 hPa | 0 mm | - | - | - |
| 1778048938 | 7.22° C | 95% | 1012.1 hPa | 0 mm | - | - | - |
| 1778048638 | 7.22° C | 95% | 1011.8 hPa | 0 mm | - | - | - |
| 1778048338 | 7.22° C | 95% | 1011.9 hPa | 0 mm | - | - | - |
| 1778048038 | 7.22° C | 95% | 1012.3 hPa | 0 mm | - | - | - |
| 1778047738 | 7.22° C | 95% | 1012.3 hPa | 0 mm | - | - | - |
| 1778047438 | 7.22° C | 94% | 1012.2 hPa | 0.25 mm | - | - | - |
| 1778047138 | 7.22° C | 94% | 1012.3 hPa | 0.25 mm | - | - | - |
| 1778046838 | 7.22° C | 94% | 1012.5 hPa | 0.51 mm | - | - | - |
| 1778046538 | 7.22° C | 94% | 1012.5 hPa | 0.51 mm | - | - | - |
| 1778046238 | 7.22° C | 94% | 1012.6 hPa | 0.51 mm | - | - | - |
| 1778045938 | 7.22° C | 94% | 1012.3 hPa | 0.51 mm | - | - | - |
| 1778045338 | 7.22° C | 94% | 1012.5 hPa | 1.02 mm | - | - | - |
| 1778045038 | 7.22° C | 94% | 1012.4 hPa | 1.27 mm | - | - | - |
| 1778044438 | 7.22° C | 94% | 1012.3 hPa | 2.03 mm | - | - | - |
| 1778044138 | 7.22° C | 94% | 1012.3 hPa | 2.54 mm | - | - | - |
| 1778043838 | 7.22° C | 94% | 1012.3 hPa | 2.79 mm | - | - | - |
* Rain latest hour (hover to see other rain measurements)
** Current wind speed in m/s (hover to see current wind gust speed)